Weather History for Keene, NH

Change the Weather History Date:

Saturday, March 24, 2012

  Actual Average Record
Temperature  
Mean Temperature 52 °F -  
Max Temperature 57 °F 47 °F 70 °F (1979)
Min Temperature 48 °F 22 °F 6 °F (1934)
Degree Days  
Heating Degree Days 12    
Growing Degree Days 2 (Base 50)    
Moisture  
Dew Point 21 °F    
Average Humidity 30    
Maximum Humidity 50    
Minimum Humidity 20    
Precipitation  
Precipitation 0.00 in - - ()
Sea Level Pressure  
Sea Level Pressure 30.09 in    
Wind  
Wind Speed 3 mph (North)    
Max Wind Speed 12 mph    
Max Gust Speed -    
Visibility 10 miles    
Events      
Averages and records for this station are not official NWS values.
T = Trace of Precipitation, MM = Missing Value Source: NWS Daily Summary

Daily Weather History Graph

Daily Weather History Graph

Search for Another Location

Airport:

Trip Planner

Search our weather history database for the weather conditions in past years. The results will help you decide how hot, cold, wet, or windy it might be!

Date:

Astronomy

Mar. 24, 2012 Rise Set
Actual Time 6:44 AM EDT 7:06 PM EDT
Civil Twilight 6:16 AM EDT 7:34 PM EDT
Nautical Twilight 5:42 AM EDT 8:08 PM EDT
Astronomical Twilight 5:08 AM EDT 8:42 PM EDT
Moon 7:17 AM EDT (3/24) 9:28 PM EDT (3/24)
Length of Visible Light 13h 18m
Length of Day
12h 22m
Waxing Crescent, 4% of the Moon is Illuminated
Mar 24
Waxing Crescent
Mar 30
First Quarter
Apr 6
Full
Apr 13
Last Quarter
Apr 21
New

Hourly Weather History & Observations

Time (EDT) Temp. Dew Point Humidity Pressure Visibility Wind Dir Wind Speed Gust Speed Precip Events Conditions
12:35 AM 53.6 °F 26.6 °F 35% 30.10 in 10.0 mi Calm Calm - N/A   Clear
12:55 AM 51.8 °F 28.4 °F 41% 30.10 in 10.0 mi Calm Calm - N/A   Clear
1:15 AM 51.8 °F 28.4 °F 41% 30.10 in 10.0 mi Calm Calm - N/A   Clear
1:35 AM 53.6 °F 24.8 °F 33% 30.10 in 10.0 mi NE 4.6 mph - N/A   Clear
1:55 AM 53.6 °F 21.2 °F 28% 30.11 in 10.0 mi ENE 3.5 mph - N/A   Clear
2:15 AM 51.8 °F 26.6 °F 38% 30.11 in 10.0 mi Calm Calm - N/A   Clear
2:35 AM 51.8 °F 24.8 °F 35% 30.11 in 10.0 mi NE 3.5 mph - N/A   Clear
3:15 AM 51.8 °F 26.6 °F 38% 30.10 in 10.0 mi North 4.6 mph - N/A   Partly Cloudy
3:35 AM 51.8 °F 28.4 °F 41% 30.10 in 10.0 mi North 5.8 mph - N/A   Partly Cloudy
3:55 AM 48.2 °F 30.2 °F 50% 30.10 in 10.0 mi SSE 3.5 mph - N/A   Clear
4:15 AM 50.0 °F 26.6 °F 40% 30.09 in 10.0 mi Calm Calm - N/A   Clear
4:35 AM 48.2 °F 26.6 °F 43% 30.09 in 10.0 mi ENE 4.6 mph - N/A   Partly Cloudy
4:55 AM 50.0 °F 24.8 °F 37% 30.10 in 10.0 mi NNE 3.5 mph - N/A   Mostly Cloudy
5:15 AM 50.0 °F 21.2 °F 32% 30.11 in 10.0 mi North 10.4 mph - N/A   Overcast
5:55 AM 50.0 °F 21.2 °F 32% 30.11 in 10.0 mi North 6.9 mph - N/A   Overcast
6:15 AM 50.0 °F 19.4 °F 30% 30.11 in 10.0 mi NNE 6.9 mph - N/A   Mostly Cloudy
6:35 AM 48.2 °F 17.6 °F 30% 30.12 in 10.0 mi North 9.2 mph - N/A   Partly Cloudy
7:15 AM 48.2 °F 19.4 °F 32% 30.13 in 10.0 mi North 9.2 mph - N/A   Scattered Clouds
7:35 AM 48.2 °F 15.8 °F 27% 30.13 in 10.0 mi NNE 6.9 mph - N/A   Partly Cloudy
7:55 AM 48.2 °F 19.4 °F 32% 30.13 in 10.0 mi North 11.5 mph - N/A   Partly Cloudy
8:35 AM 50.0 °F 17.6 °F 28% 30.14 in 10.0 mi North 11.5 mph - N/A   Clear
8:55 AM 50.0 °F 17.6 °F 28% 30.15 in 10.0 mi North 8.1 mph - N/A   Clear
9:15 AM 50.0 °F 17.6 °F 28% 30.14 in 10.0 mi North 6.9 mph - N/A   Scattered Clouds
9:35 AM 51.8 °F 17.6 °F 26% 30.14 in 10.0 mi Calm Calm - N/A   Partly Cloudy
9:55 AM 51.8 °F 15.8 °F 24% 30.14 in 10.0 mi NNW 4.6 mph - N/A   Partly Cloudy
10:15 AM 53.6 °F 15.8 °F 22% 30.14 in 10.0 mi NNW 6.9 mph - N/A   Partly Cloudy
10:35 AM 53.6 °F 15.8 °F 22% 30.14 in 10.0 mi WNW 3.5 mph - N/A   Clear
11:15 AM 53.6 °F 17.6 °F 24% 30.13 in 10.0 mi NNW 4.6 mph - N/A   Clear
11:35 AM 55.4 °F 17.6 °F 23% 30.13 in 10.0 mi NNE 4.6 mph - N/A   Clear
11:55 AM 53.6 °F 15.8 °F 22% 30.13 in 10.0 mi North 4.6 mph - N/A   Clear
12:15 PM 55.4 °F 15.8 °F 21% 30.11 in 10.0 mi Calm Calm - N/A   Clear
12:35 PM 57.2 °F 15.8 °F 20% 30.11 in 10.0 mi South 4.6 mph - N/A   Partly Cloudy
12:55 PM 57.2 °F 17.6 °F 21% 30.10 in 10.0 mi SSW 5.8 mph - N/A   Clear
1:35 PM 55.4 °F 17.6 °F 23% 30.08 in 10.0 mi SW 4.6 mph - N/A   Mostly Cloudy
1:55 PM 55.4 °F 17.6 °F 23% 30.07 in 10.0 mi WSW 4.6 mph - N/A   Scattered Clouds
2:15 PM 55.4 °F 17.6 °F 23% 30.07 in 10.0 mi WSW 3.5 mph - N/A   Mostly Cloudy
2:35 PM 55.4 °F 17.6 °F 23% 30.06 in 10.0 mi WSW 3.5 mph - N/A   Overcast
2:55 PM 57.2 °F 17.6 °F 21% 30.06 in 10.0 mi Calm Calm - N/A   Overcast
3:15 PM 57.2 °F 17.6 °F 21% 30.05 in 10.0 mi SSW 3.5 mph - N/A   Scattered Clouds
3:35 PM 57.2 °F 19.4 °F 23% 30.05 in 10.0 mi Calm Calm - N/A   Scattered Clouds
4:15 PM 57.2 °F 19.4 °F 23% 30.04 in 10.0 mi West 4.6 mph - N/A   Mostly Cloudy
4:35 PM 57.2 °F 19.4 °F 23% 30.04 in 10.0 mi WSW 3.5 mph - N/A   Mostly Cloudy
4:55 PM 57.2 °F 19.4 °F 23% 30.04 in 10.0 mi Calm Calm - N/A   Mostly Cloudy
5:15 PM 57.2 °F 19.4 °F 23% 30.04 in 10.0 mi Calm Calm - N/A   Mostly Cloudy
5:35 PM 57.2 °F 21.2 °F 25% 30.03 in 10.0 mi North 4.6 mph - N/A   Scattered Clouds
5:55 PM 57.2 °F 21.2 °F 25% 30.03 in 10.0 mi North 3.5 mph - N/A   Mostly Cloudy
6:15 PM 55.4 °F 24.8 °F 31% 30.03 in 10.0 mi Calm Calm - N/A   Overcast
6:55 PM 53.6 °F 30.2 °F 41% 30.03 in 10.0 mi Calm Calm - N/A   Mostly Cloudy
7:15 PM 53.6 °F 33.8 °F 47% 30.03 in 10.0 mi Calm Calm - N/A   Overcast
7:35 PM 51.8 °F 32.0 °F 47% 30.03 in 10.0 mi Calm Calm - N/A   Mostly Cloudy
7:55 PM 51.8 °F 30.2 °F 44% 30.02 in 10.0 mi Calm Calm - N/A   Mostly Cloudy
8:15 PM 51.8 °F 33.8 °F 50% 30.03 in 10.0 mi Calm Calm - N/A   Mostly Cloudy
8:35 PM 51.8 °F 32.0 °F 47% 30.03 in 10.0 mi Calm Calm - N/A   Scattered Clouds
8:55 PM 51.8 °F 32.0 °F 47% 30.03 in 10.0 mi Calm Calm - N/A   Mostly Cloudy
9:35 PM 50.0 °F 35.6 °F 58% 30.03 in 10.0 mi Calm Calm - N/A   Mostly Cloudy
9:55 PM 50.0 °F 35.6 °F 58% 30.03 in 10.0 mi Calm Calm - N/A   Scattered Clouds
10:15 PM 48.2 °F 37.4 °F 66% 30.03 in 10.0 mi Calm Calm - N/A   Mostly Cloudy
10:35 PM 50.0 °F 33.8 °F 54% 30.03 in 10.0 mi Calm Calm - N/A   Overcast
10:55 PM 48.2 °F 35.6 °F 62% 30.03 in 10.0 mi Calm Calm - N/A   Overcast
11:15 PM 48.2 °F 35.6 °F 62% 30.03 in 10.0 mi Calm Calm - N/A   Overcast
11:35 PM 48.2 °F 35.6 °F 62% 30.03 in 10.0 mi South 3.5 mph - N/A   Overcast